ELEKTRO-L 3

Last updated on Tue Jul 01 2025 00:02:33 GMT+0000 (Coordinated Universal Time)

1 44903U 19095A 25181.58169488 -.00000097 00000+0 00000+0 0 9995 2 44903 0.0902 143.4808 0000649 0.5383 60.3150 1.00271556 20182
UTC large
Height (km)
Speed (km/s)
/
Latitude / Longitude
Inclination (degrees)
Orbital Period (minutes)
Azimuth
Elevation
Range (km)
Doppler Factor

Next 0 passes for location: London (51.5072 / 0.1276)

Sorry there are no passes over London.